When you browse on this site, cookies collect data to enhance your experience and personalize the content and advertising you see.
Visit our Privacy Policy to learn more. By continuing to use the site, you agree to this use of cookies and data.
  • In Sweden
  • List of Countries
  • For 7 days
  • Water Temperature
  • Weather Map
  • Weather Widgets
  • user-avatar
    Login

    Hourly Weather Dobryn'ka

    Today, 18 November, Monday

    Time Temperature Precipitation Wind Pressure Humidity
    00:00 +3°C° 0 mm 3 mps 763 mmHg 88%
    01:00 +3°C° 0 mm 3 mps 763 mmHg 88%
    02:00 +3°C° 0 mm 3 mps 763 mmHg 89%
    03:00 +3°C° 0 mm 3 mps 762 mmHg 90%
    04:00 +2°C° 0 mm 3 mps 762 mmHg 90%
    05:00 +2°C° 0 mm 3 mps 762 mmHg 91%
    06:00 +2°C° 0 mm 3 mps 762 mmHg 90%
    07:00 +2°C° 0 mm 3 mps 762 mmHg 90%
    08:00 +3°C° 0 mm 3 mps 762 mmHg 89%
    09:00 +4°C° 0 mm 4 mps 762 mmHg 82%
    10:00 +5°C° 0 mm 4 mps 762 mmHg 75%
    11:00 +7°C° 0 mm 4 mps 762 mmHg 68%
    12:00 +7°C° 0 mm 4 mps 762 mmHg 66%
    13:00 +8°C° 0 mm 4 mps 761 mmHg 63%
    14:00 +9°C° 0 mm 3 mps 761 mmHg 61%
    15:00 +8°C° 0 mm 3 mps 761 mmHg 66%
    16:00 +7°C° 0 mm 3 mps 761 mmHg 71%
    17:00 +6°C° 0 mm 2 mps 761 mmHg 76%
    18:00 +6°C° 0 mm 2 mps 761 mmHg 78%
    19:00 +5°C° 0 mm 2 mps 761 mmHg 79%
    20:00 +5°C° 0 mm 2 mps 762 mmHg 81%
    21:00 +5°C° 0 mm 2 mps 762 mmHg 83%
    22:00 +4°C° 0 mm 2 mps 762 mmHg 86%
    23:00 +4°C° 0 mm 2 mps 762 mmHg 88%

    Tomorrow, 19 November, Tuesday

    Time Temperature Precipitation Wind Pressure Humidity
    00:00 +4°C° 0 mm 2 mps 762 mmHg 88%
    01:00 +4°C° 0 mm 2 mps 762 mmHg 89%
    02:00 +5°C° 0 mm 1 mps 762 mmHg 89%
    03:00 +4°C° 0 mm 1 mps 762 mmHg 90%
    04:00 +4°C° 0 mm 1 mps 762 mmHg 90%
    05:00 +4°C° 0 mm 1 mps 762 mmHg 90%
    06:00 +4°C° 0 mm 1 mps 762 mmHg 90%
    07:00 +3°C° 0 mm 2 mps 762 mmHg 90%
    08:00 +3°C° 0 mm 2 mps 763 mmHg 89%
    09:00 +5°C° 0 mm 2 mps 762 mmHg 82%
    10:00 +7°C° 0 mm 2 mps 762 mmHg 74%
    11:00 +8°C° 0 mm 2 mps 762 mmHg 67%
    12:00 +9°C° 0 mm 2 mps 762 mmHg 64%
    13:00 +11°C° 0 mm 1 mps 762 mmHg 61%
    14:00 +11°C° 0 mm 1 mps 762 mmHg 58%
    15:00 +9°C° 0 mm 2 mps 762 mmHg 63%
    16:00 +8°C° 0 mm 2 mps 762 mmHg 69%
    17:00 +7°C° 0 mm 2 mps 762 mmHg 74%
    18:00 +6°C° 0 mm 2 mps 762 mmHg 76%
    19:00 +6°C° 0 mm 2 mps 762 mmHg 78%
    20:00 +5°C° 0 mm 2 mps 762 mmHg 81%
    21:00 +5°C° 0 mm 2 mps 762 mmHg 82%
    22:00 +4°C° 0 mm 2 mps 762 mmHg 83%
    23:00 +4°C° 0 mm 2 mps 762 mmHg 84%

    Day after tomorrow, 20 November, Wednesday

    Time Temperature Precipitation Wind Pressure Humidity
    00:00 +4°C° 0 mm 2 mps 762 mmHg 86%
    01:00 +3°C° 0 mm 2 mps 762 mmHg 87%
    02:00 +3°C° 0 mm 2 mps 762 mmHg 88%
    03:00 +2°C° 0 mm 3 mps 762 mmHg 89%
    04:00 +2°C° 0 mm 3 mps 762 mmHg 89%
    05:00 +1°C° 0 mm 3 mps 762 mmHg 90%
    06:00 +1°C° 0 mm 3 mps 762 mmHg 88%
    07:00 0°C° 0 mm 4 mps 763 mmHg 86%
    08:00 0°C° 0 mm 4 mps 763 mmHg 84%
    09:00 +3°C° 0 mm 4 mps 763 mmHg 75%
    10:00 +3°C° 0 mm 5 mps 763 mmHg 66%
    11:00 +5°C° 0 mm 5 mps 763 mmHg 57%
    12:00 +6°C° 0 mm 5 mps 763 mmHg 52%
    13:00 +6°C° 0 mm 5 mps 763 mmHg 47%
    14:00 +7°C° 0 mm 6 mps 763 mmHg 43%
    15:00 +5°C° 0 mm 6 mps 763 mmHg 51%
    16:00 +4°C° 0 mm 6 mps 763 mmHg 59%
    17:00 +3°C° 0 mm 6 mps 764 mmHg 66%
    18:00 +3°C° 0 mm 6 mps 764 mmHg 71%
    19:00 +3°C° 0 mm 6 mps 764 mmHg 75%
    20:00 +3°C° 0 mm 7 mps 765 mmHg 79%
    21:00 +3°C° 0 mm 7 mps 765 mmHg 79%
    22:00 +2°C° 0 mm 7 mps 765 mmHg 78%
    23:00 +1°C° 0 mm 8 mps 765 mmHg 77%

    21 November, Thursday

    Time Temperature Precipitation Wind Pressure Humidity
    00:00 0°C° 0 mm 7 mps 766 mmHg 74%
    01:00 -1°C° 0 mm 7 mps 766 mmHg 70%
    02:00 -2°C° 0 mm 7 mps 766 mmHg 67%
    03:00 -3°C° 0 mm 7 mps 767 mmHg 64%
    04:00 -5°C° 0 mm 8 mps 767 mmHg 62%
    05:00 -6°C° 0 mm 8 mps 767 mmHg 60%
    06:00 -7°C° 0 mm 8 mps 768 mmHg 58%
    07:00 -8°C° 0 mm 8 mps 768 mmHg 56%
    08:00 -10°C° 0 mm 8 mps 768 mmHg 55%
    09:00 -8°C° 0 mm 8 mps 768 mmHg 50%
    10:00 -7°C° 0 mm 8 mps 768 mmHg 46%
    11:00 -6°C° 0 mm 8 mps 768 mmHg 41%
    12:00 -6°C° 0 mm 8 mps 768 mmHg 40%
    13:00 -6°C° 0 mm 8 mps 768 mmHg 39%
    14:00 -5°C° 0 mm 8 mps 768 mmHg 37%
    15:00 -6°C° 0 mm 8 mps 768 mmHg 40%
    16:00 -7°C° 0 mm 8 mps 768 mmHg 42%
    17:00 -8°C° 0 mm 7 mps 768 mmHg 44%
    18:00 -8°C° 0 mm 7 mps 768 mmHg 43%
    19:00 -8°C° 0 mm 7 mps 768 mmHg 42%
    20:00 -9°C° 0 mm 7 mps 769 mmHg 42%
    21:00 -9°C° 0 mm 7 mps 769 mmHg 42%
    22:00 -9°C° 0 mm 7 mps 769 mmHg 42%
    23:00 -11°C° 0 mm 7 mps 769 mmHg 43%

    22 November, Friday

    Time Temperature Precipitation Wind Pressure Humidity
    00:00 -11°C° 0 mm 7 mps 769 mmHg 43%
    01:00 -11°C° 0 mm 7 mps 769 mmHg 43%
    02:00 -11°C° 0 mm 7 mps 769 mmHg 43%
    03:00 -12°C° 0 mm 8 mps 769 mmHg 43%
    04:00 -12°C° 0 mm 8 mps 769 mmHg 43%
    05:00 -12°C° 0 mm 8 mps 768 mmHg 43%
    06:00 -12°C° 0 mm 8 mps 768 mmHg 44%
    07:00 -11°C° 0 mm 8 mps 769 mmHg 44%
    08:00 -11°C° 0 mm 9 mps 769 mmHg 45%
    09:00 -10°C° 0 mm 9 mps 768 mmHg 42%
    10:00 -8°C° 0 mm 9 mps 768 mmHg 39%
    11:00 -6°C° 0 mm 9 mps 768 mmHg 37%
    12:00 -5°C° 0 mm 9 mps 768 mmHg 34%
    13:00 -5°C° 0 mm 8 mps 767 mmHg 32%
    14:00 -4°C° 0 mm 8 mps 767 mmHg 29%
    15:00 -5°C° 0 mm 8 mps 767 mmHg 31%
    16:00 -6°C° 0 mm 7 mps 767 mmHg 32%
    17:00 -6°C° 0 mm 7 mps 767 mmHg 34%
    18:00 -7°C° 0 mm 7 mps 767 mmHg 35%
    19:00 -6°C° 0 mm 6 mps 767 mmHg 36%
    20:00 -6°C° 0 mm 6 mps 767 mmHg 37%
    21:00 -8°C° 0 mm 6 mps 767 mmHg 39%
    22:00 -8°C° 0 mm 6 mps 767 mmHg 41%
    23:00 -8°C° 0 mm 6 mps 767 mmHg 43%

    23 November, Saturday

    Time Temperature Precipitation Wind Pressure Humidity
    00:00 -8°C° 0 mm 6 mps 767 mmHg 45%
    01:00 -9°C° 0 mm 6 mps 767 mmHg 47%
    02:00 -9°C° 0 mm 6 mps 767 mmHg 49%
    03:00 -9°C° 0 mm 6 mps 767 mmHg 50%
    04:00 -9°C° 0 mm 6 mps 766 mmHg 51%
    05:00 -9°C° 0 mm 6 mps 766 mmHg 53%
    06:00 -9°C° 0 mm 6 mps 766 mmHg 54%
    07:00 -9°C° 0 mm 6 mps 766 mmHg 54%
    08:00 -8°C° 0 mm 7 mps 766 mmHg 55%
    09:00 -7°C° 0 mm 7 mps 766 mmHg 54%
    10:00 -6°C° 0 mm 7 mps 766 mmHg 53%
    11:00 -3°C° 0 mm 7 mps 766 mmHg 53%
    12:00 -3°C° 0 mm 7 mps 765 mmHg 53%
    13:00 -2°C° 0 mm 7 mps 765 mmHg 53%
    14:00 -2°C° 0 mm 7 mps 765 mmHg 53%
    15:00 -3°C° 0 mm 6 mps 765 mmHg 56%
    16:00 -4°C° 0 mm 6 mps 765 mmHg 59%
    17:00 -5°C° 0 mm 5 mps 765 mmHg 62%
    18:00 -5°C° 0 mm 5 mps 765 mmHg 62%
    19:00 -5°C° 0 mm 6 mps 765 mmHg 62%
    20:00 -6°C° 0 mm 6 mps 765 mmHg 62%
    21:00 -6°C° 0 mm 6 mps 765 mmHg 63%
    22:00 -6°C° 0 mm 6 mps 765 mmHg 63%
    23:00 -6°C° 0 mm 6 mps 765 mmHg 64%
    Show more